Bellaire, MI

6:23 AM EDT on August 19, 2017 (GMT -0400)
Antrim County

Weather History for KACB - March, 2014

Change the Weather History Date:

Thursday, March 13, 2014

  Actual Average (KCVX) Record (KCVX)
Temperature  
Mean Temperature 10 °F -  
Max Temperature 28 °F 34 °F 57 °F (2007)
Min Temperature -8 °F 20 °F -6 °F (2014)
Degree Days  
Heating Degree Days 55    
Moisture  
Dew Point 3 °F    
Average Humidity 67    
Maximum Humidity 85    
Minimum Humidity 45    
Precipitation  
Precipitation 0.00 in - - ()
Sea Level Pressure  
Sea Level Pressure 29.97 in    
Wind  
Wind Speed 3 mph (SSW)    
Max Wind Speed 14 mph    
Max Gust Speed 20 mph    
Visibility 10 miles    
Events      
Averages and records for this station are not official NWS values.
T = Trace of Precipitation, MM = Missing Value Source: NWS Daily Summary

Daily Weather History Graph

Daily Weather History Graph

Search for Another Location

Airport or City:

Trip Planner

Search our weather history database for the weather conditions in past years. The results will help you decide how hot, cold, wet, or windy it might be!

Date:

Astronomy

Mar. 13, 2014 Rise Set
Actual Time 7:56 AM EDT 7:44 PM EDT
Civil Twilight 7:27 AM EDT 8:13 PM EDT
Nautical Twilight 6:53 AM EDT 8:47 PM EDT
Astronomical Twilight 6:19 AM EDT 9:22 PM EDT
Moon 5:04 PM EDT (3/13) 6:09 AM EDT (3/13)
Length of Visible Light 12h 45m
Length of Day
11h 47m
Waxing Gibbous, 91% of the Moon is Illuminated
Mar 13
Waxing Gibbous
Mar 16
Full
Mar 23
Last Quarter
Mar 30
New
Apr 7
First Quarter

Hourly Weather History & Observations

Time (EDT) Temp. Windchill Dew Point Humidity Pressure Visibility Wind Dir Wind Speed Gust Speed Precip Events Conditions
12:14 AM 4.1 °F -3.2 °F -4.0 °F 69% 30.10 in 10.0 mi North 3.5 mph - N/A   Clear
12:35 AM 4.3 °F - -3.8 °F 69% 30.09 in 10.0 mi Calm Calm - N/A   Clear
12:55 AM 3.2 °F - -3.6 °F 73% 30.09 in 10.0 mi Calm Calm - N/A   Clear
1:14 AM 1.2 °F - -4.4 °F 77% 30.09 in 10.0 mi Calm Calm - N/A   Clear
1:35 AM 1.0 °F - -4.2 °F 79% 30.09 in 10.0 mi Calm Calm - N/A   Clear
1:55 AM -0.0 °F - -4.4 °F 82% 30.08 in 10.0 mi Calm Calm - N/A   Clear
2:14 AM -0.8 °F - -4.7 °F 83% 30.08 in 10.0 mi Calm Calm - N/A   Clear
2:35 AM -1.5 °F - -5.1 °F 85% 30.08 in 10.0 mi Calm Calm - N/A   Clear
2:55 AM -2.9 °F - -6.7 °F 84% 30.08 in 10.0 mi Calm Calm - N/A   Clear
3:14 AM -2.2 °F - -6.0 °F 84% 30.07 in 10.0 mi Calm Calm - N/A   Clear
3:35 AM -3.1 °F - -6.7 °F 85% 30.06 in 10.0 mi Calm Calm - N/A   Clear
3:55 AM -3.6 °F - -7.6 °F 83% 30.06 in 10.0 mi Calm Calm - N/A   Clear
4:14 AM -3.5 °F - -7.4 °F 83% 30.05 in 10.0 mi Calm Calm - N/A   Clear
4:35 AM -5.1 °F - -9.2 °F 82% 30.05 in 10.0 mi Calm Calm - N/A   Clear
4:55 AM -5.3 °F - -9.4 °F 82% 30.06 in 10.0 mi Calm Calm - N/A   Clear
5:14 AM -5.3 °F - -9.6 °F 82% 30.06 in 10.0 mi Calm Calm - N/A   Clear
5:35 AM -6.0 °F - -10.3 °F 82% 30.06 in 10.0 mi Calm Calm - N/A   Clear
5:54 AM -5.8 °F - -10.1 °F 82% 30.06 in 10.0 mi Calm Calm - N/A   Clear
6:15 AM -5.6 °F - -10.1 °F 81% 30.07 in 10.0 mi Calm Calm - N/A   Clear
6:35 AM -7.1 °F - -11.7 °F 80% 30.07 in 10.0 mi Calm Calm - N/A   Clear
6:54 AM -6.7 °F - -11.4 °F 80% 30.08 in 10.0 mi Calm Calm - N/A   Clear
7:15 AM -6.0 °F - -10.7 °F 80% 30.07 in 10.0 mi Calm Calm - N/A   Clear
7:35 AM -8.0 °F - -12.8 °F 79% 30.08 in 10.0 mi Calm Calm - N/A   Clear
7:54 AM -6.7 °F - -11.4 °F 80% 30.08 in 10.0 mi Calm Calm - N/A   Clear
8:15 AM -7.1 °F - -11.9 °F 79% 30.08 in 10.0 mi Calm Calm - N/A   Clear
8:35 AM -5.4 °F - -9.8 °F 82% 30.08 in 10.0 mi Calm Calm - N/A   Clear
8:54 AM -3.6 °F - -8.1 °F 81% 30.09 in 10.0 mi Calm Calm - N/A   Clear
9:15 AM -2.9 °F - -7.8 °F 80% 30.09 in 10.0 mi Calm Calm - N/A   Clear
9:35 AM 0.3 °F - -4.4 °F 81% 30.08 in 10.0 mi Calm Calm - N/A   Clear
9:54 AM 5.0 °F -5.6 °F -0.4 °F 78% 30.07 in 10.0 mi South 5.8 mph - N/A   Clear
10:15 AM 7.2 °F -3.0 °F -0.4 °F 71% 30.06 in 10.0 mi South 5.8 mph - N/A   Mostly Cloudy
10:35 AM 9.5 °F -0.3 °F -1.1 °F 62% 30.06 in 10.0 mi SSW 5.8 mph - N/A   Overcast
10:55 AM 12.0 °F 1.5 °F -2.2 °F 53% 30.06 in 10.0 mi South 6.9 mph - N/A   Mostly Cloudy
11:15 AM 13.1 °F 2.8 °F -2.4 °F 50% 30.04 in 10.0 mi South 6.9 mph - N/A   Scattered Clouds
11:35 AM 14.4 °F 4.3 °F -0.0 °F 53% 30.03 in 10.0 mi South 6.9 mph - N/A   Clear
11:55 AM 16.7 °F 9.6 °F -1.5 °F 45% 30.02 in 10.0 mi SSW 4.6 mph - N/A   Mostly Cloudy
12:15 PM 18.7 °F 10.6 °F 1.2 °F 47% 30.01 in 10.0 mi SSW 5.8 mph - N/A   Overcast
12:35 PM 20.1 °F 11.3 °F 5.2 °F 52% 30.00 in 10.0 mi SSW 6.9 mph - N/A   Overcast
12:55 PM 21.9 °F 12.5 °F 7.5 °F 54% 29.99 in 10.0 mi SW 8.1 mph - N/A   Overcast
1:15 PM 22.6 °F 13.4 °F 9.1 °F 56% 29.98 in 10.0 mi SSW 8.1 mph 18.4 mph N/A   Mostly Cloudy
1:35 PM 23.5 °F 12.4 °F 8.6 °F 53% 29.97 in 10.0 mi SW 11.5 mph 16.1 mph N/A   Overcast
1:55 PM 24.6 °F 17.7 °F 8.8 °F 51% 29.96 in 10.0 mi SW 5.8 mph - N/A   Overcast
2:15 PM 26.1 °F 16.2 °F 9.0 °F 49% 29.94 in 10.0 mi SSW 10.4 mph - N/A   Overcast
2:35 PM 27.0 °F 17.3 °F 9.5 °F 48% 29.93 in 10.0 mi SW 10.4 mph - N/A   Overcast
2:55 PM 27.5 °F 20.2 °F 9.3 °F 46% 29.91 in 10.0 mi SW 6.9 mph - N/A   Overcast
3:15 PM 27.3 °F 17.7 °F 8.8 °F 46% 29.90 in 10.0 mi SSW 10.4 mph 18.4 mph N/A   Mostly Cloudy
3:35 PM 27.5 °F 16.3 °F 8.6 °F 45% 29.89 in 10.0 mi SW 13.8 mph 19.6 mph N/A   Overcast
3:55 PM 28.0 °F 18.1 °F 9.1 °F 45% 29.89 in 10.0 mi SSW 11.5 mph - N/A   Overcast
4:15 PM 27.5 °F 18.0 °F 9.3 °F 46% 29.89 in 10.0 mi SSW 10.4 mph 16.1 mph N/A   Overcast
4:35 PM 27.5 °F 21.1 °F 9.9 °F 48% 29.88 in 10.0 mi SSW 5.8 mph - N/A   Overcast
4:55 PM 27.7 °F 18.2 °F 9.3 °F 46% 29.87 in 10.0 mi SSW 10.4 mph 17.3 mph N/A   Overcast
5:15 PM 28.2 °F 18.9 °F 9.9 °F 46% 29.86 in 10.0 mi SSW 10.4 mph 16.1 mph N/A   Overcast
5:35 PM 28.0 °F 18.6 °F 11.1 °F 49% 29.85 in 10.0 mi South 10.4 mph 18.4 mph N/A   Overcast
5:55 PM 28.4 °F 18.5 °F 11.3 °F 49% 29.85 in 10.0 mi South 11.5 mph - N/A   Overcast
6:15 PM 28.4 °F 19.7 °F 12.7 °F 52% 29.83 in 10.0 mi SSW 9.2 mph 18.4 mph N/A   Overcast
6:35 PM 28.4 °F 19.1 °F 13.8 °F 54% 29.83 in 10.0 mi South 10.4 mph - N/A   Overcast
6:55 PM 28.4 °F 20.4 °F 14.5 °F 56% 29.84 in 10.0 mi South 8.1 mph - N/A   Overcast
7:15 PM 28.4 °F 21.2 °F 15.8 °F 59% 29.83 in 10.0 mi SSW 6.9 mph - N/A   Overcast
7:35 PM 28.4 °F 18.0 °F 16.3 °F 61% 29.83 in 10.0 mi SSW 12.7 mph 18.4 mph N/A   Overcast
7:55 PM 28.4 °F 21.2 °F 16.7 °F 62% 29.83 in 10.0 mi SSW 6.9 mph - N/A   Overcast
8:15 PM 28.0 °F 20.8 °F 16.5 °F 62% 29.83 in 10.0 mi South 6.9 mph - N/A   Overcast
8:35 PM 28.0 °F 18.1 °F 16.7 °F 62% 29.83 in 10.0 mi SSW 11.5 mph 16.1 mph N/A   Overcast
8:55 PM 28.0 °F 20.0 °F 17.4 °F 64% 29.83 in 10.0 mi SSW 8.1 mph - N/A   Overcast
9:15 PM 28.0 °F 19.3 °F 18.1 °F 66% 29.83 in 10.0 mi SSW 9.2 mph - N/A   Overcast
9:35 PM 28.0 °F 20.0 °F 18.7 °F 68% 29.82 in 10.0 mi SSW 8.1 mph - N/A   Overcast
9:55 PM 27.7 °F 19.6 °F 18.5 °F 68% 29.81 in 10.0 mi South 8.1 mph - N/A   Mostly Cloudy
10:16 PM 27.1 °F 20.7 °F 18.9 °F 71% 29.81 in 10.0 mi South 5.8 mph - N/A   Clear
10:35 PM 26.8 °F 17.7 °F 18.9 °F 72% 29.80 in 10.0 mi South 9.2 mph - N/A   Clear
10:55 PM 26.6 °F 17.5 °F 19.2 °F 74% 29.79 in 10.0 mi South 9.2 mph - N/A   Clear
11:16 PM 26.6 °F 19.1 °F 19.4 °F 74% 29.78 in 10.0 mi South 6.9 mph - N/A   Clear
11:35 PM 26.1 °F 19.4 °F 19.4 °F 76% 29.78 in 10.0 mi South 5.8 mph - N/A   Clear
11:55 PM 26.1 °F 19.4 °F 19.9 °F 78% 29.77 in 10.0 mi South 5.8 mph - N/A   Scattered Clouds